Hourly Weather Daltenganj

Today, 17 April, Saturday

Time Temperature Precipitation Wind Pressure Humidity
00:00 +31°C° 0 mm 1 mps 735 mmHg 20%
01:00 +31°C° 0 mm 1 mps 735 mmHg 20%
02:00 +30°C° 0 mm 1 mps 735 mmHg 21%
03:00 +30°C° 0 mm 2 mps 735 mmHg 21%
04:00 +30°C° 0 mm 2 mps 735 mmHg 22%
05:00 +29°C° 0 mm 2 mps 735 mmHg 23%
06:00 +29°C° 0 mm 2 mps 735 mmHg 23%
07:00 +32°C° 0 mm 2 mps 736 mmHg 20%
08:00 +36°C° 0 mm 3 mps 736 mmHg 16%
09:00 +41°C° 0 mm 4 mps 737 mmHg 12%
10:00 +42°C° 0 mm 4 mps 736 mmHg 11%
11:00 +43°C° 0 mm 4 mps 736 mmHg 10%
12:00 +45°C° 0 mm 5 mps 736 mmHg 9%
13:00 +46°C° 0 mm 5 mps 735 mmHg 9%
14:00 +46°C° 0 mm 5 mps 734 mmHg 9%
15:00 +46°C° 0 mm 5 mps 733 mmHg 9%
16:00 +45°C° 0 mm 5 mps 733 mmHg 10%
17:00 +43°C° 0 mm 5 mps 733 mmHg 11%
18:00 +42°C° 0 mm 4 mps 733 mmHg 12%
19:00 +40°C° 0 mm 4 mps 734 mmHg 13%
20:00 +37°C° 0 mm 3 mps 734 mmHg 15%
21:00 +35°C° 0 mm 2 mps 735 mmHg 17%
22:00 +34°C° 0 mm 2 mps 735 mmHg 18%
23:00 +34°C° 0 mm 2 mps 735 mmHg 19%

Tomorrow, 18 April, Sunday

Time Temperature Precipitation Wind Pressure Humidity
00:00 +32°C° 0 mm 2 mps 735 mmHg 20%
01:00 +32°C° 0 mm 2 mps 735 mmHg 20%
02:00 +31°C° 0 mm 2 mps 735 mmHg 21%
03:00 +31°C° 0 mm 1 mps 735 mmHg 22%
04:00 +30°C° 0 mm 1 mps 735 mmHg 23%
05:00 +30°C° 0 mm 2 mps 735 mmHg 23%
06:00 +29°C° 0 mm 2 mps 736 mmHg 24%
07:00 +32°C° 0 mm 2 mps 736 mmHg 21%
08:00 +35°C° 0 mm 3 mps 737 mmHg 19%
09:00 +38°C° 0 mm 3 mps 737 mmHg 16%
10:00 +41°C° 0 mm 4 mps 737 mmHg 14%
11:00 +42°C° 0 mm 4 mps 737 mmHg 13%
12:00 +44°C° 0 mm 4 mps 736 mmHg 11%
13:00 +45°C° 0 mm 5 mps 735 mmHg 10%
14:00 +46°C° 0 mm 6 mps 734 mmHg 10%
15:00 +46°C° 0 mm 7 mps 733 mmHg 9%
16:00 +45°C° 0 mm 7 mps 733 mmHg 9%
17:00 +44°C° 0 mm 7 mps 733 mmHg 9%
18:00 +42°C° 0 mm 6 mps 733 mmHg 9%
19:00 +40°C° 0 mm 5 mps 733 mmHg 10%
20:00 +36°C° 0 mm 4 mps 734 mmHg 11%
21:00 +34°C° 0 mm 3 mps 734 mmHg 12%
22:00 +33°C° 0 mm 3 mps 734 mmHg 13%
23:00 +31°C° 0 mm 2 mps 735 mmHg 14%

Day after tomorrow, 19 April, Monday

Time Temperature Precipitation Wind Pressure Humidity
00:00 +30°C° 0 mm 2 mps 735 mmHg 15%
01:00 +29°C° 0 mm 2 mps 734 mmHg 16%
02:00 +28°C° 0 mm 2 mps 734 mmHg 17%
03:00 +27°C° 0 mm 2 mps 734 mmHg 18%
04:00 +27°C° 0 mm 2 mps 734 mmHg 18%
05:00 +26°C° 0 mm 2 mps 734 mmHg 19%
06:00 +26°C° 0 mm 2 mps 735 mmHg 19%
07:00 +30°C° 0 mm 2 mps 735 mmHg 16%
08:00 +34°C° 0 mm 2 mps 736 mmHg 13%
09:00 +38°C° 0 mm 2 mps 736 mmHg 10%
10:00 +39°C° 0 mm 3 mps 736 mmHg 9%
11:00 +42°C° 0 mm 4 mps 735 mmHg 7%
12:00 +45°C° 0 mm 5 mps 735 mmHg 6%
13:00 +45°C° 0 mm 5 mps 734 mmHg 6%
14:00 +46°C° 0 mm 5 mps 733 mmHg 5%
15:00 +46°C° 0 mm 5 mps 732 mmHg 5%
16:00 +45°C° 0 mm 5 mps 732 mmHg 5%
17:00 +45°C° 0 mm 5 mps 732 mmHg 5%
18:00 +43°C° 0 mm 4 mps 732 mmHg 6%
19:00 +39°C° 0 mm 3 mps 732 mmHg 7%
20:00 +37°C° 0 mm 2 mps 733 mmHg 8%
21:00 +33°C° 0 mm 1 mps 733 mmHg 9%
22:00 +32°C° 0 mm 1 mps 733 mmHg 10%
23:00 +31°C° 0 mm 2 mps 733 mmHg 10%

20 April, Tuesday

Time Temperature Precipitation Wind Pressure Humidity
00:00 +30°C° 0 mm 2 mps 733 mmHg 11%
01:00 +30°C° 0 mm 2 mps 733 mmHg 11%
02:00 +29°C° 0 mm 2 mps 732 mmHg 12%
03:00 +28°C° 0 mm 1 mps 732 mmHg 12%
04:00 +28°C° 0 mm 1 mps 732 mmHg 13%
05:00 +28°C° 0 mm 1 mps 733 mmHg 13%
06:00 +27°C° 0 mm 1 mps 733 mmHg 14%
07:00 +31°C° 0 mm 1 mps 734 mmHg 12%
08:00 +35°C° 0 mm 2 mps 734 mmHg 10%
09:00 +38°C° 0 mm 2 mps 735 mmHg 8%
10:00 +40°C° 0 mm 2 mps 735 mmHg 8%
11:00 +42°C° 0 mm 2 mps 734 mmHg 7%
12:00 +45°C° 0 mm 2 mps 734 mmHg 7%
13:00 +46°C° 0 mm 3 mps 733 mmHg 6%
14:00 +48°C° 0 mm 4 mps 732 mmHg 6%
15:00 +48°C° 0 mm 5 mps 731 mmHg 6%
16:00 +47°C° 0 mm 4 mps 731 mmHg 6%
17:00 +45°C° 0 mm 4 mps 731 mmHg 7%
18:00 +45°C° 0 mm 3 mps 731 mmHg 7%
19:00 +42°C° 0 mm 3 mps 731 mmHg 9%
20:00 +39°C° 0 mm 2 mps 732 mmHg 10%
21:00 +36°C° 0 mm 2 mps 732 mmHg 12%
22:00 +35°C° 0 mm 2 mps 733 mmHg 13%
23:00 +34°C° 0 mm 2 mps 733 mmHg 14%

21 April, Wednesday

Time Temperature Precipitation Wind Pressure Humidity
00:00 +32°C° 0 mm 2 mps 733 mmHg 14%
01:00 +32°C° 0 mm 2 mps 733 mmHg 15%
02:00 +31°C° 0 mm 1 mps 732 mmHg 15%
03:00 +30°C° 0 mm 1 mps 732 mmHg 16%
04:00 +30°C° 0 mm 1 mps 732 mmHg 16%
05:00 +30°C° 0 mm 1 mps 733 mmHg 17%
06:00 +29°C° 0 mm 1 mps 733 mmHg 17%
07:00 +32°C° 0 mm 1 mps 734 mmHg 15%
08:00 +36°C° 0 mm 1 mps 735 mmHg 13%
09:00 +40°C° 0 mm 2 mps 735 mmHg 10%
10:00 +42°C° 0 mm 2 mps 735 mmHg 9%
11:00 +44°C° 0 mm 3 mps 735 mmHg 8%
12:00 +46°C° 0 mm 3 mps 735 mmHg 7%
13:00 +47°C° 0 mm 3 mps 734 mmHg 7%
14:00 +48°C° 0 mm 4 mps 733 mmHg 7%
15:00 +49°C° 0 mm 4 mps 732 mmHg 7%
16:00 +47°C° 0 mm 4 mps 732 mmHg 8%
17:00 +45°C° 0 mm 4 mps 732 mmHg 9%
18:00 +44°C° 0 mm 4 mps 732 mmHg 10%
19:00 +42°C° 0 mm 3 mps 733 mmHg 11%
20:00 +39°C° 0 mm 3 mps 733 mmHg 13%
21:00 +37°C° 0 mm 2 mps 734 mmHg 15%
22:00 +36°C° 0 mm 2 mps 734 mmHg 18%
23:00 +33°C° 0 mm 1 mps 735 mmHg 22%

22 April, Thursday

Time Temperature Precipitation Wind Pressure Humidity
00:00 +30°C° 0 mm 0 mps 735 mmHg 26%
01:00 +30°C° 0 mm 0 mps 735 mmHg 27%
02:00 +31°C° 0 mm 1 mps 734 mmHg 28%
03:00 +31°C° 0 mm 1 mps 734 mmHg 29%
04:00 +31°C° 0 mm 1 mps 734 mmHg 29%
05:00 +30°C° 0 mm 1 mps 735 mmHg 30%
06:00 +30°C° 0 mm 2 mps 735 mmHg 31%
07:00 +34°C° 0 mm 2 mps 736 mmHg 26%
08:00 +36°C° 0 mm 2 mps 736 mmHg 22%
09:00 +39°C° 0 mm 2 mps 737 mmHg 18%
10:00 +41°C° 0 mm 2 mps 736 mmHg 15%
11:00 +43°C° 0 mm 3 mps 736 mmHg 12%
12:00 +45°C° 0 mm 3 mps 736 mmHg 10%
13:00 +45°C° 0 mm 4 mps 735 mmHg 10%
14:00 +46°C° 0 mm 5 mps 734 mmHg 10%
15:00 +46°C° 0 mm 5 mps 733 mmHg 10%
16:00 +45°C° 0 mm 5 mps 733 mmHg 10%
17:00 +45°C° 0 mm 6 mps 732 mmHg 10%
18:00 +44°C° 0 mm 6 mps 732 mmHg 10%
19:00 +41°C° 0 mm 5 mps 733 mmHg 12%
20:00 +39°C° 0 mm 5 mps 733 mmHg 13%
21:00 +36°C° 0 mm 5 mps 734 mmHg 14%
22:00 +34°C° 0 mm 4 mps 734 mmHg 15%
23:00 +33°C° 0 mm 3 mps 735 mmHg 15%
Show more